| time (UTC) | temp C | wind direction | speed KPH | gust KPH | rain 1hr cm | rain 24hr cm | rain mn cm | humidity % | barometer mb |
| 20260507060100 | 18 | 360 | 4.8 | 8.0 | 0.00 | 0.00 | 0.00 | 45 | 1011.9 |
| 20260507054605 | 20 | 360 | 4.8 | 8.0 | 0.00 | 0.00 | 0.00 | 43 | 1011.9 |
| 20260507053033 | 20 | 360 | 8.0 | 12.9 | 0.00 | 0.00 | 0.00 | 46 | 1011.9 |
| 20260507051532 | 20 | 360 | 6.4 | 9.7 | 0.00 | 0.00 | 0.00 | 46 | 1011.9 |
| 20260507050035 | 20 | 360 | 9.7 | 12.9 | 0.00 | 0.00 | 0.00 | 45 | 1012.0 |
| 20260507044531 | 20 | 360 | 8.0 | 14.5 | 0.00 | 0.00 | 0.00 | 44 | 1011.9 |
| 20260507043031 | 21 | 360 | 11.3 | 19.3 | 0.00 | 0.00 | 0.00 | 43 | 1011.8 |
| 20260507041530 | 20 | 360 | 9.7 | 16.1 | 0.00 | 0.00 | 0.00 | 43 | 1011.7 |
| 20260507040037 | 21 | 360 | 14.5 | 19.3 | 0.00 | 0.00 | 0.00 | 42 | 1011.6 |
| 20260507034536 | 21 | 360 | 12.9 | 20.9 | 0.00 | 0.00 | 0.00 | 42 | 1011.4 |
| 20260507033042 | 21 | 360 | 12.9 | 17.7 | 0.00 | 0.00 | 0.00 | 43 | 1011.4 |
| 20260507031544 | 21 | 360 | 8.0 | 19.3 | 0.00 | 0.00 | 0.00 | 44 | 1011.3 |
| 20260507030031 | 21 | 360 | 8.0 | 19.3 | 0.00 | 0.00 | 0.00 | 45 | 1011.2 |
| 20260507024527 | 21 | 360 | 6.4 | 24.1 | 0.00 | 0.00 | 0.00 | 43 | 1011.0 |
| 20260507023026 | 22 | 360 | 11.3 | 20.9 | 0.00 | 0.00 | 0.00 | 42 | 1010.9 |
| 20260507021526 | 22 | 360 | 1.6 | 9.7 | 0.00 | 0.00 | 0.00 | 40 | 1010.8 |
| 20260507020026 | 23 | 360 | 9.7 | 19.3 | 0.00 | 0.00 | 0.00 | 39 | 1010.8 |
| 20260507014535 | 24 | 360 | 12.9 | 22.5 | 0.00 | 0.00 | 0.00 | 36 | 1010.8 |
| 20260507013033 | 25 | 360 | 8.0 | 17.7 | 0.00 | 0.00 | 0.00 | 33 | 1010.6 |
| 20260507011532 | 25 | 18 | 9.7 | 20.9 | 0.00 | 0.00 | 0.00 | 33 | 1010.6 |
| 20260507010029 | 26 | 15 | 6.4 | 19.3 | 0.00 | 0.00 | 0.00 | 32 | 1010.6 |
| 20260507004521 | 26 | 5 | 1.6 | 9.7 | 0.00 | 0.00 | 0.00 | 25 | 1010.7 |
| 20260507003051 | 26 | 11 | 6.4 | 16.1 | 0.00 | 0.00 | 0.00 | 20 | 1010.6 |
| 20260507001525 | 26 | 11 | 16.1 | 24.1 | 0.00 | 0.00 | 0.00 | 20 | 1010.5 |
| 20260507000020 | 26 | 11 | 14.5 | 22.5 | 0.00 | 0.00 | 0.00 | 20 | 1010.4 |
| 20260506234518 | 26 | 11 | 11.3 | 22.5 | 0.00 | 0.00 | 0.00 | 21 | 1010.4 |
| 20260506233017 | 26 | 11 | 17.7 | 24.1 | 0.00 | 0.00 | 0.00 | 20 | 1010.5 |
| 20260506231516 | 26 | 11 | 11.3 | 25.7 | 0.00 | 0.00 | 0.00 | 20 | 1010.6 |
| 20260506230014 | 26 | 10 | 16.1 | 24.1 | 0.00 | 0.00 | 0.00 | 20 | 1010.7 |
| 20260506224512 | 26 | 9 | 16.1 | 27.4 | 0.00 | 0.00 | 0.00 | 20 | 1010.8 |
| 20260506223016 | 26 | 16 | 12.9 | 22.5 | 0.00 | 0.00 | 0.00 | 20 | 1011.1 |
| 20260506221508 | 26 | 360 | 17.7 | 25.7 | 0.00 | 0.00 | 0.00 | 20 | 1011.3 |
| 20260506220007 | 26 | 360 | 8.0 | 24.1 | 0.00 | 0.00 | 0.00 | 21 | 1011.6 |
| 20260506214505 | 26 | 360 | 16.1 | 25.7 | 0.00 | 0.00 | 0.00 | 21 | 1011.7 |
| 20260506213002 | 26 | 360 | 19.3 | 25.7 | 0.00 | 0.00 | 0.00 | 22 | 1011.8 |
| 20260506211501 | 26 | 360 | 9.7 | 25.7 | 0.00 | 0.00 | 0.00 | 22 | 1012.0 |
| 20260506210059 | 25 | 360 | 11.3 | 25.7 | 0.00 | 0.00 | 0.00 | 23 | 1012.1 |
| 20260506204548 | 25 | 360 | 16.1 | 25.7 | 0.00 | 0.00 | 0.00 | 23 | 1012.3 |
| 20260506203043 | 25 | 360 | 11.3 | 25.7 | 0.00 | 0.00 | 0.00 | 24 | 1012.4 |
| 20260506201543 | 25 | 360 | 14.5 | 24.1 | 0.00 | 0.00 | 0.00 | 24 | 1012.6 |
| 20260506200041 | 25 | 360 | 14.5 | 30.6 | 0.00 | 0.00 | 0.00 | 24 | 1012.8 |
| 20260506194541 | 24 | 360 | 19.3 | 27.4 | 0.00 | 0.00 | 0.00 | 25 | 1013.0 |
| 20260506193039 | 24 | 360 | 16.1 | 24.1 | 0.00 | 0.00 | 0.00 | 24 | 1013.1 |
| 20260506191535 | 24 | 360 | 6.4 | 20.9 | 0.00 | 0.00 | 0.00 | 25 | 1013.2 |
| 20260506190038 | 24 | 360 | 16.1 | 22.5 | 0.00 | 0.00 | 0.00 | 25 | 1013.4 |
| 20260506184541 | 23 | 360 | 3.2 | 29.0 | 0.00 | 0.00 | 0.00 | 25 | 1013.3 |
| 20260506183030 | 24 | 360 | 14.5 | 22.5 | 0.00 | 0.00 | 0.00 | 25 | 1013.4 |
| 20260506181528 | 23 | 360 | 14.5 | 22.5 | 0.00 | 0.00 | 0.00 | 25 | 1013.6 |
| 20260506180030 | 23 | 360 | 8.0 | 25.7 | 0.00 | 0.00 | 0.00 | 25 | 1013.7 |
| 20260506174525 | 23 | 360 | 9.7 | 17.7 | 0.00 | 0.00 | 0.00 | 25 | 1013.7 |
| 20260506173030 | 22 | 360 | 3.2 | 16.1 | 0.00 | 0.00 | 0.00 | 28 | 1013.6 |
| 20260506171521 | 22 | 360 | 6.4 | 12.9 | 0.00 | 0.00 | 0.00 | 28 | 1013.7 |
| 20260506170019 | 21 | 360 | 0.0 | 8.0 | 0.00 | 0.00 | 0.00 | 29 | 1013.6 |
| 20260506164516 | 21 | 360 | 4.8 | 9.7 | 0.00 | 0.00 | 0.00 | 31 | 1013.5 |
| 20260506163022 | 21 | 360 | 3.2 | 6.4 | 0.00 | 0.00 | 0.00 | 34 | 1013.5 |
| 20260506161511 | 20 | 360 | 3.2 | 8.0 | 0.00 | 0.00 | 0.00 | 36 | 1013.5 |
| 20260506160006 | 18 | 360 | 3.2 | 8.0 | 0.00 | 0.00 | 0.00 | 39 | 1013.5 |
| 20260506154502 | 18 | 360 | 3.2 | 6.4 | 0.00 | 0.00 | 0.00 | 41 | 1013.5 |
| 20260506153103 | 17 | 360 | 3.2 | 8.0 | 0.00 | 0.00 | 0.00 | 42 | 1013.6 |
| 20260506151557 | 17 | 360 | 1.6 | 8.0 | 0.00 | 0.00 | 0.00 | 43 | 1013.6 |
| 20260506150053 | 16 | 360 | 6.4 | 12.9 | 0.00 | 0.00 | 0.00 | 44 | 1013.8 |
| 20260506144548 | 16 | 360 | 9.7 | 16.1 | 0.00 | 0.00 | 0.00 | 48 | 1013.7 |
| 20260506143045 | 15 | 360 | 9.7 | 22.5 | 0.00 | 0.00 | 0.00 | 50 | 1013.5 |
| 20260506141541 | 14 | 360 | 12.9 | 19.3 | 0.00 | 0.00 | 0.00 | 51 | 1013.4 |
| 20260506140037 | 13 | 360 | 14.5 | 22.5 | 0.00 | 0.00 | 0.00 | 53 | 1013.4 |
| 20260506134531 | 12 | 360 | 11.3 | 20.9 | 0.00 | 0.00 | 0.00 | 55 | 1013.4 |
| 20260506133030 | 12 | 360 | 12.9 | 24.1 | 0.00 | 0.00 | 0.00 | 55 | 1013.1 |
| 20260506131541 | 12 | 360 | 12.9 | 20.9 | 0.00 | 0.00 | 0.00 | 56 | 1012.9 |
| 20260506130029 | 12 | 360 | 16.1 | 24.1 | 0.00 | 0.00 | 0.00 | 56 | 1012.7 |
| 20260506124526 | 12 | 360 | 12.9 | 24.1 | 0.00 | 0.00 | 0.00 | 56 | 1012.5 |
| 20260506123026 | 12 | 360 | 22.5 | 29.0 | 0.00 | 0.00 | 0.00 | 56 | 1012.3 |
| 20260506121525 | 12 | 360 | 17.7 | 30.6 | 0.00 | 0.00 | 0.00 | 56 | 1012.2 |
| 20260506120025 | 12 | 360 | 19.3 | 29.0 | 0.00 | 0.00 | 0.00 | 57 | 1012.2 |
| 20260506114522 | 12 | 360 | 14.5 | 27.4 | 0.00 | 0.00 | 0.00 | 57 | 1012.2 |
| 20260506113022 | 12 | 360 | 19.3 | 27.4 | 0.00 | 0.00 | 0.00 | 57 | 1012.1 |
| 20260506111522 | 12 | 360 | 17.7 | 25.7 | 0.00 | 0.00 | 0.00 | 58 | 1012.1 |
| 20260506110022 | 12 | 360 | 19.3 | 27.4 | 0.00 | 0.00 | 0.00 | 59 | 1012.2 |
| 20260506104517 | 11 | 360 | 19.3 | 29.0 | 0.00 | 0.00 | 0.00 | 60 | 1012.0 |
| 20260506103016 | 11 | 360 | 19.3 | 35.4 | 0.00 | 0.00 | 0.00 | 60 | 1012.1 |
| 20260506101527 | 11 | 360 | 22.5 | 32.2 | 0.00 | 0.00 | 0.00 | 61 | 1012.1 |
| 20260506100014 | 11 | 360 | 19.3 | 29.0 | 0.00 | 0.00 | 0.00 | 61 | 1012.0 |
| 20260506094521 | 11 | 360 | 20.9 | 29.0 | 0.00 | 0.00 | 0.00 | 61 | 1012.0 |
| 20260506093014 | 11 | 360 | 22.5 | 29.0 | 0.00 | 0.00 | 0.00 | 61 | 1012.0 |
| 20260506091513 | 11 | 360 | 17.7 | 29.0 | 0.00 | 0.00 | 0.00 | 61 | 1012.2 |
| 20260506090008 | 11 | 360 | 20.9 | 30.6 | 0.00 | 0.00 | 0.00 | 60 | 1012.3 |
| 20260506084507 | 11 | 360 | 12.9 | 22.5 | 0.00 | 0.00 | 0.00 | 60 | 1012.4 |
| 20260506083005 | 11 | 360 | 17.7 | 25.7 | 0.00 | 0.00 | 0.00 | 60 | 1012.5 |
| 20260506081503 | 11 | 360 | 14.5 | 27.4 | 0.00 | 0.00 | 0.00 | 60 | 1012.8 |
| 20260506073059 | 11 | 360 | 20.9 | 32.2 | 0.00 | 0.00 | 0.00 | 61 | 1012.8 |
| 20260506071559 | 11 | 360 | 19.3 | 29.0 | 0.00 | 0.00 | 0.00 | 62 | 1012.9 |
| 20260506061550 | 11 | 360 | 12.9 | 30.6 | 0.00 | 0.00 | 0.00 | 59 | 1012.7 |